Погода в Супонево

Россия / Московская область     55°45′03″N   36°52′27″E
темп.,
°C
ветер,
м/с
пор.,
м/с
влажн.,
%
обл.,
%
осадки,
мм/ч
давл.,
гПа
погр.,
м
18 апреля, вс
вс1800:00+8всв5126267 0.0 1020563
03:00+6всв5136922 0.0 1020538
06:00+5всв512725 0.0 1020548
09:00+8всв59575 0.0 1020841
12:00+11в6948100 0.0 10201581
15:00+9вюв5869100 0.3 1022937
18:00+8вюв41075100 0.2 10221026
21:00+8в51270100 0.3 10231051
19 апреля, пн
пн1900:00+7св4980100 0.0 10231101
03:00+6св5990100 0.5 1023898
06:00+5всв5990100 0.3 1023861
09:00+4всв4985100 0.4 1025628
12:00+5всв498093 0.0 1025734
15:00+8всв5864100 0.0 10241287
18:00+6всв6969100 0.0 10251175
21:00+2всв51196100 0.3 1025743
20 апреля, вт
вт2000:00+3всв4107091 0.1 1024789
03:00+1всв51284100 0.1 1023664
06:00+1всв51397100 1.9 1021601
09:00+1в51397100 5.6 1021557
12:00+2в51297100 0.6 1020588
15:00+3в51295100 1.1 1019652
18:00+3в51297100 0.1 1016739
21:00+4всв51494100 1.7 1013939
21 апреля, ср
ср2100:00+4в71697100 3.6 10081105
03:00+3в81897100 10.1 10041248
06:00+5в81696100 1.4 1000970
09:00+6вюв71495100 1.8 999962
12:00+7юв61195100 0.8 9981280
15:00+3ю4898100 1.9 999830
18:00+2юз71497100 1.0 1003900
21:00+3юз61393100 2.5 10081057
22 апреля, чт
чт2200:00+4юз61289100 0.1 1011991
03:00+4юз41192100 0.1 1013564
06:00+4ююз4119297 0.1 1015399
09:00+7юз58805 0.2 1016624
12:00+10юз576324 0.4 10171369
15:00+12юз355779 0.6 10181637
18:00+11ююз247020 0.3 1019167
21:00+6ю22893 0.3 102012